Regional Weather Roundup
Issued by NWS

Home | Current Version | Previous Version | Graphics & Text | Print | Product List | Glossary On
Versions: 1 2 3 4 5 6 7 8 9 10 11 12 13 14 15 16 17 18 19 20 21 22 23 24 25 26 27 28 29 30 31 32 33 34 35 36 37 38 39 40 41 42 43 44 45 46 47 48 49 50
636
ASUS44 KJAN 171310
RWRMS

MISSISSIPPI HOURLY WEATHER ROUNDUP
NATIONAL WEATHER SERVICE JACKSON MS
700 AM CST WED DEC 17 2014

NOTE: "FAIR: INDICATES FEW OR NO CLOUDS BELOW 12,000 FEET WITH NO
SIGNIFICANT WEATHER AND/OR OBSTRUCTIONS TO VISIBILITY.

MSZ001>002-007>008-010>013-018>021-025>028-034>036-171400-
NORTHWEST MISSISSIPPI

CITY           SKY/WX    TMP DP  RH WIND       PRES   REMARKS
CLARKSDALE     FAIR      32  32 100 CALM      30.33R
CLEVELAND      FAIR      33  32  96 N5        30.32R WCI  28
GREENWOOD      PTCLDY    31  29  92 CALM      30.31S
GREENVILLE     MOCLDY    34  30  85 N6        30.32R WCI  29
GRENADA        FAIR      30  28  93 CALM      30.31F
OLIVE BRANCH   MOCLDY   N/A N/A N/A CALM      30.30R
OXFORD         FAIR      27  27 100 CALM      30.31F
TUNICA         PTSUNNY   32  30  93 N5        30.33S WCI  27
$$

MSZ003>006-009-014>017-022>024-029>033-037>039-171400-
NORTHEAST MISSISSIPPI

CITY           SKY/WX    TMP DP  RH WIND       PRES   REMARKS
COLUMBUS AFB   CLEAR     28  28  97 CALM      30.30R FOG
CORINTH        FAIR      34  32  93 CALM      30.29R
GOLDN TRIANGLE PTCLDY    34  28  80 NW6       30.28R WCI  29
STARKVILLE     FAIR      32  32 100 CALM      30.30R FOG
TUPELO         MOCLDY    34  30  85 N5        30.29R WCI  30
$$

MSZ040-058-171400-
CENTRAL MISSISSIPPI

CITY           SKY/WX    TMP DP  RH WIND       PRES   REMARKS
JACKSON INTL   PTCLDY    32  31  96 CALM      30.28R
JACKSON HAWKNS CLEAR     33  31  92 VRB3      30.28S
MERIDIAN KEY   PTCLDY    29  27  92 CALM      30.30R
MERIDIAN NAS   PTCLDY    30  28  92 CALM      30.30R
RAYMOND        FAIR      28  25  86 MISG      30.30R
VICKSBURG      PTCLDY    36  33  89 N7        30.31R WCI  30
$$

MSZ059>079-171400-
SOUTH MISSISSIPPI

CITY           SKY/WX    TMP DP  RH WIND       PRES   REMARKS
HATTIESBURG    CLEAR     32  30  92 CALM      30.29R
MCCOMB         CLEAR     35  32  88 CALM      30.27R
NATCHEZ        PTCLDY    34  30  86 CALM      30.28R
PINE BELT      CLEAR     34  28  80 N3        30.27F
$$

MSZ080>082-171400-
COASTAL MISSISSIPPI

CITY           SKY/WX    TMP DP  RH WIND       PRES   REMARKS
BAY ST LOUIS   CLEAR     32  28  86 CALM      30.29
BILOXI         CLEAR     41  37  87 N5        30.28
PASCAGOULA     CLEAR     30  30 100 CALM      30.28R FOG
GULFPORT       PTCLDY    35  33  92 CALM      30.28R
$$



USA.gov is the U.S. government's official web portal to all federal, state and local government web resources and services.